Date,TemperatureHighF,TemperatureAvgF,TemperatureLowF,DewpointHighF,DewpointAvgF,DewpointLowF,HumidityHigh,HumidityAvg,HumidityLow,PressureMaxIn,PressureMinIn,WindSpeedMaxMPH,WindSpeedAvgMPH,GustSpeedMaxMPH,PrecipitationSumIn
2013-1-5,0,0,0,0,0,0,0,0,100,30.24,30.12,17,9,20,0.00
2013-1-6,0,0,0,0,0,0,0,0,100,30.09,29.91,17,7,17,0.00
2013-1-10,46,42,41,9,8,6,26,25,22,30.45,30.42,9,0,9,0.00
2013-1-11,46,45,36,42,36,14,83,72,39,30.39,30.06,14,3,14,0.31
2013-1-12,48,47,46,45,43,42,94,86,78,30.06,30.00,13,2,14,0.00
2013-1-13,49,47,45,44,43,43,91,87,83,30.00,29.88,7,1,7,0.00
2013-1-14,53,51,50,48,26,15,94,43,24,30.06,29.88,16,6,16,0.00
2013-1-15,39,38,37,29,20,12,71,50,33,30.15,30.09,13,5,13,0.00
2013-1-16,37,36,34,35,33,28,92,89,79,30.03,29.77,15,6,16,0.43
2013-1-17,44,40,38,32,14,10,79,34,29,29.94,29.80,14,4,17,0.08
2013-1-18,30,28,27,4,-2,-6,32,26,23,30.33,30.09,36,8,39,0.00
2013-1-19,51,42,28,15,12,4,41,29,21,30.18,29.88,17,8,21,0.00
2013-1-20,55,48,39,18,15,9,43,28,19,29.62,29.53,43,18,43,0.00
2013-1-21,26,26,24,-6,-6,-7,24,24,24,29.91,29.91,0,0,0,0.00
2013-1-22,20,20,18,-12,-13,-13,23,22,22,29.94,29.91,25,15,28,0.00
2013-1-23,20,17,12,-10,-14,-18,26,24,22,30.06,30.00,20,7,20,0.00
2013-1-24,22,18,11,-10,-12,-13,34,26,22,30.21,29.94,28,7,28,0.00
2013-1-25,26,22,13,2,-6,-15,51,30,24,30.24,29.88,13,4,13,0.00
2013-1-26,27,23,18,3,-2,-5,50,35,26,30.09,29.97,22,7,29,0.00
2013-1-27,36,31,30,3,3,0,32,30,22,30.33,30.27,18,16,18,0.00
2013-1-28,35,35,34,28,28,27,77,76,74,29.88,29.85,10,5,12,0.00
2013-1-29,43,43,43,34,34,34,70,70,69,29.91,29.91,18,12,18,0.00
2013-1-30,66,60,43,46,44,40,89,56,48,29.77,29.35,18,9,20,0.00
2013-1-31,62,54,36,57,42,5,87,68,26,29.47,28.88,45,22,50,0.67
2013-2-1,27,26,24,6,2,-2,42,35,32,30.00,29.83,24,11,29,0.00
2013-2-2,33,31,25,9,0,-4,50,27,23,30.00,29.85,23,9,27,0.00
2013-2-3,33,28,25,13,12,10,56,49,41,29.77,29.62,9,0,9,0.00
2013-2-4,30,29,28,-2,-3,-4,26,24,23,29.77,29.74,21,12,23,0.00
2013-2-5,33,33,33,19,18,18,55,54,54,29.71,29.68,6,4,9,0.00
2013-2-6,38,34,30,24,10,4,76,39,27,30.06,29.74,14,4,16,0.00
2013-2-7,32,30,24,7,0,-7,34,28,24,30.21,30.21,13,4,14,0.00
2013-2-8,37,34,33,31,27,19,94,78,49,30.00,29.47,13,7,17,0.31
2013-2-9,29,24,20,0,-2,-4,34,31,28,30.15,29.97,22,8,25,0.00
2013-2-10,35,27,16,13,4,-5,49,36,30,30.27,30.12,13,2,14,0.16
2013-2-11,41,37,30,37,28,13,87,73,49,30.15,29.53,0,0,0,0.24
2013-2-12,43,40,38,12,11,10,32,30,28,29.77,29.62,20,12,25,0.00
2013-2-13,40,35,30,16,14,12,49,42,33,29.71,29.50,9,2,9,0.00
2013-2-14,43,38,34,28,19,12,76,49,29,29.77,29.59,9,1,10,0.00
2013-2-15,55,45,34,25,21,18,70,41,25,29.80,29.71,13,4,13,0.00
2013-2-16,41,40,36,17,12,7,40,32,29,29.71,29.62,20,9,20,0.00
2013-2-17,30,29,28,-2,-4,-5,25,23,23,29.62,29.47,38,14,38,0.00
2013-2-18,32,24,17,-2,-6,-12,28,25,23,30.06,30.00,20,11,22,0.00
2013-2-19,46,45,45,38,38,38,77,75,73,29.53,29.50,18,9,18,0.04
2013-2-20,30,30,30,-1,-2,-2,25,25,25,29.77,29.71,28,17,36,0.00
2013-2-21,35,30,24,3,0,-1,33,27,25,30.06,29.80,35,12,35,0.00
2013-2-22,37,36,36,18,16,14,47,42,39,30.12,30.09,13,6,13,0.00
2013-2-23,44,42,38,42,40,37,96,93,87,29.91,29.68,18,8,21,0.20
2013-2-24,38,38,36,37,26,9,96,70,31,29.71,29.56,20,6,20,0.00
2013-2-25,46,41,31,14,12,10,41,31,27,29.94,29.85,16,4,16,0.00
2013-2-26,41,38,30,24,20,16,56,47,39,30.03,29.83,29,12,33,0.00
2013-2-27,46,43,39,38,32,28,97,69,51,29.47,29.38,18,10,18,0.43
2013-2-28,43,42,41,32,20,12,69,44,29,29.38,29.35,13,5,13,0.00
2013-3-1,44,40,38,14,12,12,33,31,28,29.56,29.47,25,7,25,0.00
2013-3-2,38,36,34,12,11,10,38,35,33,29.56,29.56,14,8,14,0.00
2013-3-3,35,33,31,8,6,4,33,31,30,29.53,29.50,20,9,24,0.00
2013-3-4,42,41,38,7,6,4,24,23,23,29.59,29.53,24,11,26,0.00
2013-3-5,39,35,32,13,10,8,36,35,33,29.71,29.68,14,6,17,0.00
2013-3-6,42,42,40,22,17,15,48,37,33,29.62,29.53,39,18,42,0.00
2013-3-7,39,38,37,27,22,12,66,54,34,29.74,29.62,28,11,29,0.00
2013-3-8,42,39,33,33,24,16,81,58,40,29.83,29.68,21,8,24,0.47
2013-3-9,57,44,34,16,12,5,43,29,17,29.91,29.83,14,5,18,0.00
2013-3-10,47,43,30,31,23,21,78,46,38,29.97,29.88,20,10,20,0.00
2013-3-12,58,58,57,55,54,54,89,88,87,29.21,29.18,16,8,20,0.55
2013-3-13,52,50,47,14,12,10,24,21,21,29.32,29.29,29,14,29,0.00
2013-3-14,44,40,34,6,4,3,27,22,20,29.38,29.32,25,20,25,0.00
2013-3-15,31,31,31,-1,-2,-3,25,23,23,29.44,29.44,12,9,15,0.00
2013-3-16,42,37,34,26,14,6,69,41,26,29.88,29.83,13,5,13,0.00
2013-3-17,40,39,36,7,4,2,29,23,21,30.21,30.15,21,9,23,0.00
2013-3-18,34,34,34,15,14,13,45,42,41,30.24,30.24,16,12,20,0.00
2013-3-19,49,46,44,23,19,17,36,33,32,29.74,29.71,14,3,18,0.00
2013-3-20,33,33,32,6,6,5,32,31,31,29.91,29.91,14,7,14,0.00
2013-3-21,42,38,33,17,8,1,51,30,21,29.80,29.65,17,8,21,0.00
2013-3-22,44,39,27,6,4,1,33,24,20,29.88,29.77,27,12,29,0.00
2013-3-23,48,42,37,10,7,2,31,23,19,29.97,29.85,27,14,29,0.00
2013-3-24,47,38,30,12,6,2,33,26,19,29.97,29.74,18,6,18,0.00
2013-3-25,38,38,37,31,31,31,78,77,77,29.53,29.50,12,5,13,0.08
2013-3-26,50,42,33,32,26,18,76,55,28,29.77,29.74,15,7,15,0.00
2013-3-27,52,44,36,17,15,11,39,31,21,29.94,29.91,28,11,28,0.00
2013-3-28,50,46,36,18,17,16,43,31,27,30.09,30.00,16,6,16,0.00
2013-3-29,56,49,35,16,14,10,43,26,20,30.15,30.06,23,6,28,0.00
2013-3-30,61,55,47,16,12,6,20,18,16,30.15,30.09,20,5,20,0.00
2013-3-31,55,50,45,26,24,21,42,36,26,30.12,29.85,14,5,15,0.00
2013-4-1,65,51,46,43,34,18,87,60,20,29.77,29.65,29,13,29,0.04
2013-4-2,46,41,30,7,5,2,30,22,20,30.03,30.00,29,14,29,0.00
2013-4-3,50,49,48,9,8,8,19,19,19,30.15,30.12,26,14,36,0.00
2013-4-4,53,48,43,14,11,6,25,22,18,30.24,30.15,18,9,18,0.00
2013-4-5,66,65,64,17,17,16,16,16,15,29.83,29.71,28,12,32,0.00
2013-4-6,55,51,44,12,10,6,20,19,17,30.33,30.27,22,7,22,0.00
2013-4-7,66,56,47,26,20,17,31,25,20,30.30,30.03,25,10,27,0.00
2013-4-8,71,71,71,27,27,27,19,19,19,30.03,30.03,18,12,24,0.00
2013-4-9,84,84,82,29,28,28,14,13,13,29.94,29.94,21,7,22,0.00
2013-4-10,67,67,66,31,30,30,26,25,25,29.91,29.88,21,12,23,0.00
2013-4-11,60,52,48,37,36,34,64,54,40,30.03,29.97,28,14,30,0.00
2013-4-12,46,44,44,42,40,39,89,86,77,30.00,29.74,28,9,33,0.47
2013-4-13,60,53,42,39,27,18,79,42,22,29.94,29.88,17,3,17,0.00
2013-4-14,60,55,47,37,19,12,62,29,17,30.18,30.03,20,3,24,0.00
2013-4-16,69,69,68,38,38,37,33,32,32,30.18,30.15,20,12,21,0.00
2013-4-17,73,72,72,24,24,23,16,16,16,30.21,30.21,13,5,19,0.00
2013-4-18,54,53,52,40,37,33,63,54,45,30.27,30.24,18,9,20,0.00
2013-4-20,53,52,51,34,27,20,51,39,27,29.94,29.91,41,12,41,0.04
2013-4-21,41,40,40,8,7,5,26,25,23,30.56,30.53,20,9,20,0.00
2013-4-22,53,52,51,20,19,18,27,26,26,30.56,30.53,34,18,34,0.00
2013-4-23,51,46,43,27,23,20,40,39,39,30.42,30.24,14,8,17,0.00
2013-4-24,66,64,62,35,35,34,35,33,32,29.88,29.83,17,8,22,0.00
2013-4-25,68,63,57,19,16,13,20,16,15,30.24,30.18,15,5,16,0.00
2013-4-26,68,62,56,21,18,14,25,18,15,30.39,30.33,12,2,13,0.00
2013-4-27,71,63,51,24,17,12,24,17,14,30.45,30.30,14,6,15,0.00
2013-4-28,72,70,69,24,22,19,17,16,15,30.24,30.24,25,12,26,0.00
2013-4-29,55,55,54,45,45,44,70,68,66,30.21,30.21,13,6,13,0.00
2013-4-30,60,59,58,18,17,15,19,19,19,30.36,30.33,14,8,16,0.00
2013-5-1,65,62,56,30,28,26,36,27,24,30.47,30.45,18,11,22,0.00
2013-5-2,71,63,42,33,26,22,68,28,17,30.45,30.36,16,3,16,0.00
2013-5-3,63,56,50,36,28,24,52,35,24,30.45,30.39,17,7,23,0.00
2013-5-4,66,60,50,42,29,24,63,32,23,30.33,30.27,25,9,25,0.00
2013-5-5,60,55,50,28,26,24,36,33,30,30.30,30.27,20,8,20,0.00
2013-5-6,66,62,50,38,33,31,63,36,27,30.24,30.18,14,6,16,0.00
2013-5-7,69,57,48,47,41,40,77,59,37,30.15,30.12,18,4,20,0.00
2013-5-8,66,62,58,58,53,47,90,73,65,30.06,30.00,13,3,13,0.94
2013-5-9,72,67,56,53,42,38,87,42,31,29.97,29.91,14,4,17,1.22
2013-5-10,78,77,75,39,37,36,27,24,22,29.94,29.94,16,7,16,0.00
2013-5-11,70,66,63,61,58,46,88,74,49,29.85,29.74,13,2,16,0.20
2013-5-12,67,66,66,18,17,17,15,15,15,29.77,29.77,30,17,36,0.00
2013-5-13,57,50,45,15,14,12,29,23,17,30.03,30.00,20,6,27,0.00
2013-5-14,65,60,41,19,17,16,41,21,15,30.12,30.06,13,6,13,0.00
2013-5-15,71,64,56,40,36,32,39,35,32,30.06,29.71,20,5,20,0.00
2013-5-16,83,75,60,54,42,36,73,35,19,29.85,29.74,20,4,21,0.00
2013-5-17,75,70,60,26,24,19,22,18,16,30.12,29.94,18,4,18,0.00
2013-5-18,64,63,62,46,39,36,56,42,36,30.33,30.30,10,2,10,0.00
2013-5-19,59,58,58,56,55,53,94,90,85,30.33,30.21,9,2,13,0.31
2013-5-20,82,79,59,58,49,46,98,38,30,30.12,29.97,14,6,16,0.00
2013-5-21,85,73,64,59,53,44,82,58,24,29.97,29.85,13,4,18,0.04
2013-5-22,80,74,69,61,56,50,75,57,35,29.88,29.88,10,3,15,0.00
2013-5-23,79,74,69,63,61,54,78,66,42,29.88,29.83,18,6,18,0.39
2013-5-24,52,50,49,44,42,41,78,75,73,29.94,29.85,17,6,20,0.16
2013-5-25,61,56,50,43,27,20,74,35,24,30.03,29.94,39,11,43,0.00
2013-5-26,72,68,57,24,21,17,26,17,15,30.15,30.03,25,9,27,0.00
2013-5-27,77,70,63,26,25,21,24,19,15,30.27,30.15,12,8,13,0.00
2013-5-28,71,65,59,57,44,32,92,55,25,30.24,30.15,8,1,9,0.31
2013-5-29,87,78,62,64,53,40,96,51,20,30.12,30.00,12,2,16,0.00
2013-5-30,94,87,81,50,43,36,33,23,14,30.15,30.09,21,7,24,0.00
2013-5-31,87,85,82,52,51,50,35,31,29,30.15,30.15,6,1,6,0.00
2013-6-1,94,88,78,55,46,42,44,25,17,30.06,29.94,14,6,18,0.00
2013-6-2,86,85,82,49,47,40,31,27,21,29.88,29.80,20,9,20,0.00
2013-6-3,80,74,69,70,60,48,88,66,33,29.88,29.83,13,5,13,0.75
2013-6-4,79,72,63,28,27,24,24,19,15,30.06,30.03,24,6,27,0.00
2013-6-5,72,67,61,44,34,23,55,32,17,30.24,30.15,17,6,18,0.00
2013-6-6,70,65,62,57,50,40,83,59,34,30.15,30.03,18,6,20,0.12
2013-6-7,65,62,61,64,61,60,98,96,95,29.91,29.74,13,6,13,1.93
2013-6-8,79,74,67,65,53,45,92,51,32,29.94,29.85,18,7,18,0.00
2013-6-9,80,76,73,46,41,38,32,29,25,30.21,30.18,8,0,9,0.00
2013-6-10,67,66,65,64,62,62,95,88,84,30.12,29.94,25,9,25,0.51
2013-6-11,82,77,71,71,55,42,98,53,26,29.77,29.65,25,10,30,0.00
2013-6-12,82,74,68,39,35,30,33,25,17,29.88,29.80,23,7,24,0.00
2013-6-13,67,66,64,60,53,45,85,64,45,29.77,29.50,18,8,20,0.63
2013-6-14,69,66,63,44,42,39,51,42,35,29.91,29.85,12,2,13,0.00
2013-6-15,82,77,72,48,33,27,42,21,14,30.00,29.94,20,3,20,0.00
2013-6-16,84,68,62,49,46,36,61,49,19,30.00,29.88,13,1,13,0.00
2013-6-17,89,82,77,58,46,36,52,29,19,29.94,29.85,16,7,21,0.00
2013-6-18,86,78,69,56,50,46,63,39,27,29.91,29.85,12,3,13,0.00
2013-6-19,77,72,67,38,30,25,33,23,15,30.09,30.00,18,6,18,0.00
2013-6-20,83,83,83,36,36,36,19,19,19,30.27,30.27,10,4,13,0.00
2013-6-21,87,79,74,36,34,31,21,20,16,30.33,30.27,13,6,13,0.00
2013-6-22,83,80,75,45,41,38,31,25,21,30.27,30.24,13,4,13,0.00
2013-6-23,92,86,80,49,46,43,32,25,19,30.21,30.09,15,8,15,0.00
2013-6-24,96,89,84,54,45,36,34,22,14,30.09,30.00,18,7,24,0.00
2013-6-25,86,82,78,64,53,46,58,39,29,30.00,29.83,14,5,14,0.24
2013-6-26,91,87,82,44,42,40,25,21,18,29.88,29.80,17,5,19,0.24
2013-6-27,90,82,74,68,52,43,80,38,20,29.80,29.59,16,7,18,0.04
2013-6-28,89,87,84,50,46,42,30,24,20,29.56,29.50,17,7,18,0.00
2013-6-29,90,83,72,65,50,40,78,38,18,29.62,29.62,18,6,18,0.00
2013-6-30,88,81,78,60,56,51,50,43,29,29.88,29.83,18,5,18,0.08
2013-7-1,79,76,75,71,66,61,80,71,57,30.00,29.94,16,3,17,0.79
2013-7-2,86,83,81,65,62,56,57,49,36,30.15,30.15,13,6,14,0.00
2013-7-3,81,80,78,67,65,64,68,62,56,30.27,30.21,6,0,10,0.00
2013-7-4,93,92,91,53,47,44,27,22,19,30.24,30.18,21,9,28,0.00
2013-7-5,94,86,82,59,50,42,45,31,17,30.24,30.12,18,6,18,0.00
2013-7-6,96,96,94,45,44,43,18,17,16,30.12,30.09,17,9,25,0.00
2013-7-7,97,93,87,52,47,43,30,21,16,30.09,29.97,16,8,16,0.00
2013-7-8,94,87,82,50,46,40,32,25,17,30.06,30.03,18,8,19,0.00
2013-7-9,92,88,84,48,46,42,29,24,18,30.09,30.06,12,6,12,0.00
2013-7-10,88,85,80,67,57,48,64,40,29,29.97,29.85,18,6,18,0.00
2013-7-11,90,85,78,58,46,40,50,27,18,29.91,29.85,13,4,17,0.00
2013-7-12,79,75,71,65,53,41,79,50,26,30.09,30.03,18,10,21,0.31
2013-7-13,81,77,72,77,72,61,100,86,53,30.27,30.21,13,4,13,1.57
2013-7-14,94,89,80,77,53,44,90,34,18,30.36,30.27,16,7,18,0.00
2013-7-15,96,90,86,54,51,46,34,27,19,30.27,30.21,14,5,19,0.00
2013-7-16,96,90,86,52,48,42,28,24,21,30.24,30.15,17,4,20,0.00
2013-7-17,97,94,88,59,57,54,36,29,27,30.21,30.09,9,4,9,0.00
2013-7-18,100,95,89,67,59,53,48,31,20,30.09,29.97,15,4,16,0.00
2013-7-19,100,95,86,71,64,58,54,38,26,29.97,29.83,19,9,19,0.00
2013-7-20,90,80,76,77,70,60,100,78,37,29.85,29.80,18,3,23,1.02
2013-7-21,88,83,79,80,59,50,100,48,31,29.97,29.91,6,3,6,0.00
2013-7-22,87,82,77,77,71,65,100,71,49,29.97,29.85,13,6,17,0.08
2013-7-23,87,78,73,80,74,65,100,89,49,29.71,29.65,18,7,18,0.00
2013-7-24,86,82,79,64,56,51,54,40,32,29.83,29.71,13,5,15,0.00
2013-7-25,68,67,66,47,43,41,46,43,41,30.06,29.97,16,8,21,0.00
2013-7-26,77,73,71,56,54,51,56,50,42,30.06,30.06,13,3,13,0.00
2013-7-27,84,81,78,64,59,53,63,49,36,30.09,30.06,10,4,13,0.00
2013-7-28,74,74,73,74,74,73,100,100,100,30.00,29.97,9,4,9,0.00
2013-7-29,85,80,77,65,60,55,66,51,36,30.06,30.03,10,2,10,0.00
2013-7-30,84,79,72,50,47,45,42,33,27,30.21,30.12,20,5,20,0.00
2013-7-31,83,81,75,52,50,50,44,35,32,30.18,30.09,13,4,13,0.00
2013-8-1,74,70,68,71,68,61,100,94,63,29.97,29.88,17,4,17,0.47
2013-8-2,84,76,72,72,64,46,100,73,27,29.94,29.88,14,3,18,0.00
2013-8-3,80,75,71,64,60,56,76,59,51,29.94,29.88,16,9,16,0.00
2013-8-4,83,77,72,52,47,40,49,36,24,29.91,29.88,20,6,20,0.00
2013-8-5,81,75,68,44,41,38,42,30,24,30.09,30.00,17,6,17,0.00
2013-8-6,72,71,70,54,52,50,54,50,46,30.09,30.09,0,0,0,0.00
2013-8-7,77,77,76,62,62,61,61,59,58,30.09,30.09,21,9,21,0.00
2013-8-8,84,76,74,78,74,67,100,97,60,30.09,30.03,20,3,20,0.55
2013-8-9,88,84,78,82,71,63,100,68,42,29.91,29.83,12,2,18,0.04
2013-8-10,87,81,76,64,53,49,66,38,31,30.03,30.00,18,5,18,0.00
2013-8-11,86,85,83,48,46,42,27,26,22,30.06,30.06,18,8,18,0.00
2013-8-12,83,72,70,74,71,59,100,96,44,30.06,30.00,9,1,10,0.20
2013-8-13,79,74,73,73,69,62,100,86,56,29.85,29.74,11,1,12,0.63
2013-8-14,77,68,61,47,43,38,58,42,26,30.03,29.85,20,7,23,0.00
2013-8-15,73,67,59,53,46,36,80,48,29,30.18,30.12,13,2,13,0.00
2013-8-16,82,70,61,63,53,40,100,65,24,30.18,30.18,12,2,12,0.00
2013-8-17,69,67,65,62,60,54,90,79,60,30.30,30.27,6,1,9,0.00
2013-8-18,72,69,66,64,59,55,83,71,56,30.27,30.24,6,0,6,0.00
2013-8-19,79,71,64,66,58,50,100,71,36,30.15,30.09,15,3,15,0.00
2013-8-20,90,84,67,71,54,48,100,41,26,30.15,30.09,15,4,15,0.00
2013-8-21,91,82,67,70,52,44,100,46,20,30.21,30.09,13,4,20,0.00
2013-8-22,81,74,72,77,73,70,100,95,71,30.06,29.94,13,2,17,0.47
2013-8-23,82,82,80,45,42,40,29,24,24,30.03,30.00,20,6,21,0.00
2013-8-24,80,74,64,48,42,38,42,32,26,30.30,30.24,18,6,18,0.00
2013-8-25,66,60,58,66,60,58,100,100,100,30.42,30.39,6,0,6,0.00
2013-8-26,86,84,82,53,52,50,34,32,32,30.03,30.03,21,8,21,0.00
2013-8-27,89,88,87,54,53,52,32,31,31,29.88,29.85,12,4,14,0.00
2013-8-28,76,74,72,76,73,69,100,97,92,29.91,29.88,0,0,0,0.59
2013-9-11,95,86,75,75,64,56,100,55,31,30.09,30.03,14,5,18,0.00
2013-9-12,85,79,71,70,66,64,90,65,51,29.83,29.71,25,8,28,0.98
2013-9-13,78,76,74,50,47,45,41,36,34,29.71,29.68,21,8,21,0.00
2013-9-19,76,75,74,41,39,38,31,27,26,30.15,30.12,13,6,13,0.00
2013-9-20,76,68,54,66,56,48,100,72,37,30.12,30.06,13,3,13,0.00